contact:dominique.lefevre@mio.osupytheas.fr, maurice.libes@osupytheas.fr, didier.mallarino@osupytheas.fr
Project:EMSO http://www.emso-fr.org/EMSO-France
Depth: 2436.0 m
Title:EMSO Ligure Ouest : Data MII capteur OXYGEN
DateTime,Latitude,Longitude,Optode-Type,Optode_Serial,Oxygen,Saturation_Oxygen,Temperature
DateTime,Latitude,Longitude,Optode-Type,Optode_Serial,µmol.l-1,%,degC
2017-10-04T00:02:05,42.805,6.029,4330,1995,198.871,60.816,13.287
2017-10-04T00:05:05,42.805,6.029,4330,1995,198.838,60.807,13.288
2017-10-04T00:08:05,42.805,6.029,4330,1995,198.608,60.736,13.288
2017-10-04T00:11:05,42.805,6.029,4330,1995,198.603,60.736,13.288
2017-10-04T00:14:05,42.805,6.029,4330,1995,198.466,60.693,13.287
2017-10-04T00:17:05,42.805,6.029,4330,1995,198.358,60.660,13.287
2017-10-04T00:20:05,42.805,6.029,4330,1995,198.075,60.574,13.288
2017-10-04T00:23:05,42.805,6.029,4330,1995,197.822,60.498,13.289
2017-10-04T00:26:05,42.805,6.029,4330,1995,197.377,60.367,13.292
2017-10-04T00:29:05,42.805,6.029,4330,1995,197.319,60.344,13.289
2017-10-04T00:32:05,42.805,6.029,4330,1995,197.212,60.311,13.288
2017-10-04T00:35:05,42.805,6.029,4330,1995,197.086,60.272,13.288
2017-10-04T00:38:05,42.805,6.029,4330,1995,196.972,60.240,13.290
2017-10-04T00:41:05,42.805,6.029,4330,1995,197.307,60.340,13.289
2017-10-04T00:44:05,42.805,6.029,4330,1995,197.435,60.380,13.289
2017-10-04T00:47:05,42.805,6.029,4330,1995,197.335,60.349,13.289
2017-10-04T00:50:05,42.805,6.029,4330,1995,197.106,60.277,13.288
2017-10-04T00:53:05,42.805,6.029,4330,1995,197.004,60.249,13.290
2017-10-04T00:56:05,42.805,6.029,4330,1995,196.821,60.192,13.289
2017-10-04T00:59:05,42.805,6.029,4330,1995,197.107,60.278,13.288
2017-10-04T01:02:05,42.805,6.029,4330,1995,197.346,60.352,13.288
2017-10-04T01:05:05,42.805,6.029,4330,1995,197.353,60.355,13.290
2017-10-04T01:08:05,42.805,6.029,4330,1995,197.448,60.382,13.288
2017-10-04T01:11:05,42.805,6.029,4330,1995,197.402,60.370,13.289
2017-10-04T01:14:05,42.805,6.029,4330,1995,197.095,60.277,13.290
2017-10-04T01:17:05,42.805,6.029,4330,1995,196.925,60.223,13.288
2017-10-04T01:20:05,42.805,6.029,4330,1995,197.154,60.293,13.288
2017-10-04T01:23:05,42.805,6.029,4330,1995,197.493,60.397,13.289
2017-10-04T01:26:05,42.805,6.029,4330,1995,197.645,60.444,13.289
2017-10-04T01:29:05,42.805,6.029,4330,1995,197.455,60.386,13.289
2017-10-04T01:32:05,42.805,6.029,4330,1995,197.125,60.285,13.289
2017-10-04T01:35:05,42.805,6.029,4330,1995,196.745,60.170,13.290
2017-10-04T01:38:05,42.805,6.029,4330,1995,196.843,60.199,13.289
2017-10-04T01:41:05,42.805,6.029,4330,1995,196.953,60.233,13.290
2017-10-04T01:44:05,42.805,6.029,4330,1995,196.981,60.241,13.289
2017-10-04T01:47:05,42.805,6.029,4330,1995,196.967,60.236,13.289
2017-10-04T01:50:05,42.805,6.029,4330,1995,197.090,60.274,13.289
2017-10-04T01:53:05,42.805,6.029,4330,1995,197.200,60.308,13.289
2017-10-04T01:56:05,42.805,6.029,4330,1995,197.400,60.369,13.289
2017-10-04T01:59:05,42.805,6.029,4330,1995,197.292,60.336,13.289
2017-10-04T02:02:05,42.805,6.029,4330,1995,197.359,60.357,13.289
2017-10-04T02:05:05,42.805,6.029,4330,1995,197.252,60.325,13.289
2017-10-04T02:08:05,42.805,6.029,4330,1995,197.070,60.269,13.289
2017-10-04T02:11:05,42.805,6.029,4330,1995,196.965,60.238,13.291
2017-10-04T02:14:05,42.805,6.029,4330,1995,196.598,60.124,13.289
2017-10-04T02:17:05,42.805,6.029,4330,1995,196.572,60.117,13.290
2017-10-04T02:20:05,42.805,6.029,4330,1995,196.381,60.058,13.290
2017-10-04T02:23:05,42.805,6.029,4330,1995,196.283,60.029,13.291
2017-10-04T02:26:05,42.805,6.029,4330,1995,195.782,59.877,13.291
2017-10-04T02:29:05,42.805,6.029,4330,1995,195.410,59.765,13.292
2017-10-04T02:32:05,42.805,6.029,4330,1995,195.059,59.658,13.293
2017-10-04T02:35:05,42.805,6.029,4330,1995,194.930,59.616,13.291
2017-10-04T02:38:05,42.805,6.029,4330,1995,195.179,59.694,13.292
2017-10-04T02:41:05,42.805,6.029,4330,1995,195.017,59.648,13.295
2017-10-04T02:44:05,42.805,6.029,4330,1995,194.732,59.559,13.294
2017-10-04T02:47:05,42.805,6.029,4330,1995,194.724,59.554,13.292
2017-10-04T02:50:05,42.805,6.029,4330,1995,194.799,59.576,13.291
2017-10-04T02:53:05,42.805,6.029,4330,1995,194.827,59.584,13.291
2017-10-04T02:56:05,42.805,6.029,4330,1995,195.000,59.636,13.290
2017-10-04T02:59:05,42.805,6.029,4330,1995,195.126,59.676,13.291
2017-10-04T03:02:05,42.805,6.029,4330,1995,195.114,59.674,13.292
2017-10-04T03:05:05,42.805,6.029,4330,1995,194.985,59.633,13.291
2017-10-04T03:08:05,42.805,6.029,4330,1995,195.061,59.656,13.290
2017-10-04T03:11:05,42.805,6.029,4330,1995,195.098,59.668,13.291
2017-10-04T03:14:05,42.805,6.029,4330,1995,195.217,59.703,13.290
2017-10-04T03:17:05,42.805,6.029,4330,1995,194.812,59.578,13.289
2017-10-04T03:20:05,42.805,6.029,4330,1995,195.022,59.642,13.289
2017-10-04T03:23:05,42.805,6.029,4330,1995,195.668,59.838,13.288
2017-10-04T03:26:05,42.805,6.029,4330,1995,196.223,60.008,13.288
2017-10-04T03:29:05,42.805,6.029,4330,1995,196.829,60.193,13.288
2017-10-04T03:32:05,42.805,6.029,4330,1995,197.223,60.314,13.288
2017-10-04T03:35:05,42.805,6.029,4330,1995,197.345,60.351,13.288
2017-10-04T03:38:05,42.805,6.029,4330,1995,197.193,60.303,13.287
2017-10-04T03:41:05,42.805,6.029,4330,1995,197.134,60.285,13.287
2017-10-04T03:44:05,42.805,6.029,4330,1995,197.256,60.322,13.287
2017-10-04T03:47:05,42.805,6.029,4330,1995,197.361,60.354,13.286
2017-10-04T03:50:05,42.805,6.029,4330,1995,197.548,60.411,13.286
2017-10-04T03:53:05,42.805,6.029,4330,1995,197.836,60.499,13.286
2017-10-04T03:56:05,42.805,6.029,4330,1995,197.968,60.539,13.286
2017-10-04T03:59:05,42.805,6.029,4330,1995,198.050,60.564,13.286
2017-10-04T04:02:05,42.805,6.029,4330,1995,198.160,60.597,13.286
2017-10-04T04:05:05,42.805,6.029,4330,1995,198.139,60.591,13.286
2017-10-04T04:08:05,42.805,6.029,4330,1995,198.180,60.604,13.286
2017-10-04T04:11:05,42.805,6.029,4330,1995,198.318,60.646,13.286
2017-10-04T04:14:05,42.805,6.029,4330,1995,198.387,60.667,13.286
2017-10-04T04:17:05,42.805,6.029,4330,1995,198.449,60.686,13.286
2017-10-04T04:20:05,42.805,6.029,4330,1995,198.425,60.678,13.286
2017-10-04T04:23:05,42.805,6.029,4330,1995,198.537,60.712,13.286
2017-10-04T04:26:05,42.805,6.029,4330,1995,198.563,60.720,13.286
2017-10-04T04:29:05,42.805,6.029,4330,1995,198.641,60.744,13.286
2017-10-04T04:32:05,42.805,6.029,4330,1995,198.543,60.714,13.286
2017-10-04T04:35:05,42.805,6.029,4330,1995,198.592,60.729,13.286
2017-10-04T04:38:05,42.805,6.029,4330,1995,198.658,60.750,13.286
2017-10-04T04:41:05,42.805,6.029,4330,1995,198.645,60.746,13.286
2017-10-04T04:44:05,42.805,6.029,4330,1995,198.589,60.729,13.286
2017-10-04T04:47:05,42.805,6.029,4330,1995,198.583,60.727,13.286
2017-10-04T04:50:05,42.805,6.029,4330,1995,198.653,60.748,13.286
2017-10-04T04:53:05,42.805,6.029,4330,1995,198.902,60.824,13.286
2017-10-04T04:56:05,42.805,6.029,4330,1995,198.818,60.798,13.286
2017-10-04T04:59:05,42.805,6.029,4330,1995,198.908,60.826,13.286
2017-10-04T05:02:05,42.805,6.029,4330,1995,199.021,60.860,13.286
2017-10-04T05:05:05,42.805,6.029,4330,1995,199.121,60.891,13.286
2017-10-04T05:08:05,42.805,6.029,4330,1995,199.200,60.915,13.286
2017-10-04T05:11:05,42.805,6.029,4330,1995,199.285,60.941,13.286
2017-10-04T05:14:05,42.805,6.029,4330,1995,199.288,60.942,13.286
2017-10-04T05:17:05,42.805,6.029,4330,1995,199.285,60.941,13.286
2017-10-04T05:20:05,42.805,6.029,4330,1995,199.230,60.924,13.286
2017-10-04T05:23:05,42.805,6.029,4330,1995,199.158,60.902,13.286
2017-10-04T05:26:05,42.805,6.029,4330,1995,199.068,60.875,13.286
2017-10-04T05:29:05,42.805,6.029,4330,1995,199.254,60.932,13.286
2017-10-04T05:32:05,42.805,6.029,4330,1995,199.043,60.868,13.286
2017-10-04T05:35:05,42.805,6.029,4330,1995,198.901,60.824,13.286
2017-10-04T05:38:05,42.805,6.029,4330,1995,199.078,60.878,13.286
2017-10-04T05:41:05,42.805,6.029,4330,1995,199.086,60.880,13.286
2017-10-04T05:44:05,42.805,6.029,4330,1995,199.002,60.855,13.286
2017-10-04T05:47:05,42.805,6.029,4330,1995,199.081,60.879,13.286
2017-10-04T05:50:05,42.805,6.029,4330,1995,198.956,60.841,13.286
2017-10-04T05:53:05,42.805,6.029,4330,1995,199.162,60.903,13.286
2017-10-04T05:56:05,42.805,6.029,4330,1995,199.084,60.880,13.286
2017-10-04T05:59:05,42.805,6.029,4330,1995,199.134,60.895,13.286
2017-10-04T06:02:05,42.805,6.029,4330,1995,199.144,60.898,13.286
2017-10-04T06:05:05,42.805,6.029,4330,1995,199.326,60.953,13.286
2017-10-04T06:08:05,42.805,6.029,4330,1995,199.377,60.969,13.286
2017-10-04T06:11:05,42.805,6.029,4330,1995,199.287,60.942,13.286
2017-10-04T06:14:05,42.805,6.029,4330,1995,199.404,60.977,13.286
2017-10-04T06:17:05,42.805,6.029,4330,1995,199.482,61.001,13.285
2017-10-04T06:20:05,42.805,6.029,4330,1995,199.453,60.992,13.286
2017-10-04T06:23:05,42.805,6.029,4330,1995,199.466,60.996,13.286
2017-10-04T06:26:05,42.805,6.029,4330,1995,199.506,61.009,13.286
2017-10-04T06:29:05,42.805,6.029,4330,1995,199.429,60.985,13.286
2017-10-04T06:32:05,42.805,6.029,4330,1995,199.328,60.954,13.285
2017-10-04T06:35:05,42.805,6.029,4330,1995,199.419,60.982,13.285
2017-10-04T06:38:05,42.805,6.029,4330,1995,199.469,60.997,13.285
2017-10-04T06:41:05,42.805,6.029,4330,1995,199.455,60.993,13.285
2017-10-04T06:44:05,42.805,6.029,4330,1995,199.421,60.982,13.285
2017-10-04T06:47:05,42.805,6.029,4330,1995,199.345,60.959,13.285
2017-10-04T06:50:05,42.805,6.029,4330,1995,199.408,60.978,13.285
2017-10-04T06:53:05,42.805,6.029,4330,1995,199.456,60.993,13.286
2017-10-04T06:56:05,42.805,6.029,4330,1995,199.435,60.987,13.285
2017-10-04T06:59:05,42.805,6.029,4330,1995,199.479,61.000,13.285
2017-10-04T07:02:05,42.805,6.029,4330,1995,199.425,60.984,13.286
2017-10-04T07:05:05,42.805,6.029,4330,1995,199.370,60.967,13.285
2017-10-04T07:08:05,42.805,6.029,4330,1995,199.383,60.971,13.286
2017-10-04T07:11:05,42.805,6.029,4330,1995,199.420,60.982,13.285
2017-10-04T07:14:05,42.805,6.029,4330,1995,199.491,61.003,13.285
2017-10-04T07:17:05,42.805,6.029,4330,1995,199.544,61.020,13.285
2017-10-04T07:20:05,42.805,6.029,4330,1995,199.421,60.982,13.285
2017-10-04T07:23:05,42.805,6.029,4330,1995,199.433,60.986,13.285
2017-10-04T07:26:05,42.805,6.029,4330,1995,199.281,60.940,13.286
2017-10-04T07:29:05,42.805,6.029,4330,1995,199.175,60.907,13.286
2017-10-04T07:32:05,42.805,6.029,4330,1995,199.133,60.894,13.286
2017-10-04T07:35:05,42.805,6.029,4330,1995,199.393,60.974,13.286
2017-10-04T07:38:05,42.805,6.029,4330,1995,199.316,60.950,13.286
2017-10-04T07:41:05,42.805,6.029,4330,1995,199.202,60.915,13.286
2017-10-04T07:44:05,42.805,6.029,4330,1995,199.249,60.930,13.286
2017-10-04T07:47:05,42.805,6.029,4330,1995,199.324,60.953,13.286
2017-10-04T07:50:05,42.805,6.029,4330,1995,199.407,60.978,13.285
2017-10-04T07:53:05,42.805,6.029,4330,1995,199.316,60.950,13.285
2017-10-04T07:56:05,42.805,6.029,4330,1995,199.547,61.021,13.285
2017-10-04T07:59:05,42.805,6.029,4330,1995,199.647,61.051,13.285
2017-10-04T08:02:05,42.805,6.029,4330,1995,199.493,61.004,13.286
2017-10-04T08:05:05,42.805,6.029,4330,1995,199.442,60.989,13.286
2017-10-04T08:08:05,42.805,6.029,4330,1995,199.377,60.969,13.286
2017-10-04T08:11:05,42.805,6.029,4330,1995,199.415,60.980,13.286
2017-10-04T08:14:05,42.805,6.029,4330,1995,199.275,60.938,13.286
2017-10-04T08:17:05,42.805,6.029,4330,1995,199.180,60.909,13.286
2017-10-04T08:20:05,42.805,6.029,4330,1995,199.201,60.915,13.285
2017-10-04T08:23:05,42.805,6.029,4330,1995,199.377,60.969,13.286
2017-10-04T08:26:05,42.805,6.029,4330,1995,199.417,60.981,13.286
2017-10-04T08:29:05,42.805,6.029,4330,1995,199.255,60.932,13.286
2017-10-04T08:32:05,42.805,6.029,4330,1995,199.219,60.921,13.286
2017-10-04T08:35:05,42.805,6.029,4330,1995,199.187,60.911,13.286
2017-10-04T08:38:05,42.805,6.029,4330,1995,199.218,60.921,13.286
2017-10-04T08:41:05,42.805,6.029,4330,1995,199.323,60.952,13.286
2017-10-04T08:44:05,42.805,6.029,4330,1995,199.283,60.940,13.286
2017-10-04T08:47:05,42.805,6.029,4330,1995,199.353,60.961,13.286
2017-10-04T08:50:05,42.805,6.029,4330,1995,199.307,60.948,13.286
2017-10-04T08:53:05,42.805,6.029,4330,1995,199.247,60.930,13.286
2017-10-04T08:56:05,42.805,6.029,4330,1995,199.200,60.915,13.286
2017-10-04T08:59:05,42.805,6.029,4330,1995,199.344,60.959,13.286
2017-10-04T09:02:05,42.805,6.029,4330,1995,199.341,60.958,13.286
2017-10-04T09:05:05,42.805,6.029,4330,1995,199.172,60.907,13.286
2017-10-04T09:08:05,42.805,6.029,4330,1995,198.780,60.787,13.286
2017-10-04T09:11:05,42.805,6.029,4330,1995,198.957,60.841,13.286
2017-10-04T09:14:05,42.805,6.029,4330,1995,198.933,60.834,13.286
2017-10-04T09:17:05,42.805,6.029,4330,1995,199.283,60.941,13.286
2017-10-04T09:20:05,42.805,6.029,4330,1995,199.389,60.973,13.286
2017-10-04T09:23:05,42.805,6.029,4330,1995,199.328,60.954,13.286
2017-10-04T09:26:05,42.805,6.029,4330,1995,199.378,60.970,13.286
2017-10-04T09:29:05,42.805,6.029,4330,1995,199.273,60.938,13.286
2017-10-04T09:32:05,42.805,6.029,4330,1995,199.097,60.884,13.286
2017-10-04T09:35:05,42.805,6.029,4330,1995,199.228,60.923,13.286
2017-10-04T09:38:05,42.805,6.029,4330,1995,199.471,60.998,13.286
2017-10-04T09:41:05,42.805,6.029,4330,1995,199.464,60.996,13.286
2017-10-04T09:44:05,42.805,6.029,4330,1995,199.561,61.025,13.286
2017-10-04T09:47:05,42.805,6.029,4330,1995,199.421,60.983,13.286
2017-10-04T09:50:05,42.805,6.029,4330,1995,199.421,60.983,13.286
2017-10-04T09:53:05,42.805,6.029,4330,1995,199.414,60.981,13.286
2017-10-04T09:56:05,42.805,6.029,4330,1995,199.365,60.966,13.286
2017-10-04T09:59:05,42.805,6.029,4330,1995,199.398,60.976,13.286
2017-10-04T10:02:05,42.805,6.029,4330,1995,199.426,60.984,13.286
2017-10-04T10:05:05,42.805,6.029,4330,1995,199.360,60.964,13.286
2017-10-04T10:08:05,42.805,6.029,4330,1995,199.508,61.009,13.286
2017-10-04T10:11:05,42.805,6.029,4330,1995,199.450,60.992,13.286
2017-10-04T10:14:05,42.805,6.029,4330,1995,199.369,60.967,13.286
2017-10-04T10:17:05,42.805,6.029,4330,1995,199.196,60.914,13.286
2017-10-04T10:20:05,42.805,6.029,4330,1995,199.190,60.912,13.286
2017-10-04T10:23:05,42.805,6.029,4330,1995,199.174,60.908,13.286
2017-10-04T10:26:05,42.805,6.029,4330,1995,199.267,60.936,13.286
2017-10-04T10:29:05,42.805,6.029,4330,1995,199.391,60.973,13.286
2017-10-04T10:32:05,42.805,6.029,4330,1995,199.330,60.955,13.286
2017-10-04T10:35:05,42.805,6.029,4330,1995,199.502,61.007,13.286
2017-10-04T10:38:05,42.805,6.029,4330,1995,199.547,61.021,13.286
2017-10-04T10:41:05,42.805,6.029,4330,1995,199.459,60.995,13.286
2017-10-04T10:44:05,42.805,6.029,4330,1995,199.425,60.984,13.286
2017-10-04T10:47:05,42.805,6.029,4330,1995,199.441,60.989,13.286
2017-10-04T10:50:05,42.805,6.029,4330,1995,199.383,60.971,13.286
2017-10-04T10:53:04,42.805,6.029,4330,1995,199.451,60.992,13.286
2017-10-04T10:56:04,42.805,6.029,4330,1995,199.577,61.030,13.286
2017-10-04T10:59:04,42.805,6.029,4330,1995,199.542,61.020,13.286
2017-10-04T11:02:04,42.805,6.029,4330,1995,199.561,61.026,13.286
2017-10-04T11:05:04,42.805,6.029,4330,1995,199.555,61.024,13.286
2017-10-04T11:08:04,42.805,6.029,4330,1995,199.498,61.007,13.286
2017-10-04T11:11:04,42.805,6.029,4330,1995,199.460,60.995,13.286
2017-10-04T11:14:04,42.805,6.029,4330,1995,199.478,61.000,13.286
2017-10-04T11:17:04,42.805,6.029,4330,1995,199.362,60.965,13.286
2017-10-04T11:20:04,42.805,6.029,4330,1995,199.406,60.978,13.286
2017-10-04T11:23:04,42.805,6.029,4330,1995,199.494,61.005,13.286
2017-10-04T11:26:04,42.805,6.029,4330,1995,199.451,60.992,13.286
2017-10-04T11:29:04,42.805,6.029,4330,1995,199.265,60.935,13.286
2017-10-04T11:32:04,42.805,6.029,4330,1995,199.457,60.994,13.286
2017-10-04T11:35:04,42.805,6.029,4330,1995,199.499,61.007,13.286
2017-10-04T11:38:04,42.805,6.029,4330,1995,199.457,60.994,13.286
2017-10-04T11:41:04,42.805,6.029,4330,1995,199.348,60.960,13.286
2017-10-04T11:44:04,42.805,6.029,4330,1995,199.339,60.958,13.286
2017-10-04T11:47:04,42.805,6.029,4330,1995,199.250,60.931,13.286
2017-10-04T11:50:04,42.805,6.029,4330,1995,199.249,60.930,13.286
2017-10-04T11:53:04,42.805,6.029,4330,1995,199.209,60.918,13.286
2017-10-04T11:56:04,42.805,6.029,4330,1995,199.309,60.948,13.286
2017-10-04T11:59:04,42.805,6.029,4330,1995,199.392,60.974,13.286
2017-10-04T12:02:04,42.805,6.029,4330,1995,199.190,60.912,13.286
2017-10-04T12:05:04,42.805,6.029,4330,1995,199.176,60.908,13.286
2017-10-04T12:08:04,42.805,6.029,4330,1995,198.901,60.824,13.286
2017-10-04T12:11:04,42.805,6.029,4330,1995,199.054,60.871,13.286
2017-10-04T12:14:04,42.805,6.029,4330,1995,198.953,60.840,13.286
2017-10-04T12:17:04,42.805,6.029,4330,1995,198.930,60.833,13.286
2017-10-04T12:20:04,42.805,6.029,4330,1995,199.147,60.899,13.286
2017-10-04T12:23:04,42.805,6.029,4330,1995,199.140,60.897,13.286
2017-10-04T12:26:04,42.805,6.029,4330,1995,199.178,60.909,13.286
2017-10-04T12:29:04,42.805,6.029,4330,1995,199.399,60.976,13.286
2017-10-04T12:32:04,42.805,6.029,4330,1995,199.476,60.999,13.286
2017-10-04T12:35:04,42.805,6.029,4330,1995,199.425,60.984,13.286
2017-10-04T12:38:04,42.805,6.029,4330,1995,199.597,61.036,13.286
2017-10-04T12:41:04,42.805,6.029,4330,1995,199.600,61.037,13.286
2017-10-04T12:44:04,42.805,6.029,4330,1995,199.355,60.962,13.286
2017-10-04T12:47:04,42.805,6.029,4330,1995,199.351,60.961,13.286
2017-10-04T12:50:04,42.805,6.029,4330,1995,199.148,60.899,13.286
2017-10-04T12:53:04,42.805,6.029,4330,1995,199.191,60.912,13.286
2017-10-04T12:56:04,42.805,6.029,4330,1995,199.195,60.914,13.286
2017-10-04T12:59:04,42.805,6.029,4330,1995,199.063,60.873,13.286
2017-10-04T13:02:04,42.805,6.029,4330,1995,199.063,60.873,13.286
2017-10-04T13:05:04,42.805,6.029,4330,1995,199.200,60.915,13.286
2017-10-04T13:08:04,42.805,6.029,4330,1995,199.328,60.954,13.286
2017-10-04T13:11:04,42.805,6.029,4330,1995,199.374,60.968,13.286
2017-10-04T13:14:04,42.805,6.029,4330,1995,199.397,60.975,13.285
2017-10-04T13:17:04,42.805,6.029,4330,1995,199.352,60.961,13.285
2017-10-04T13:20:04,42.805,6.029,4330,1995,199.461,60.995,13.286
2017-10-04T13:23:04,42.805,6.029,4330,1995,199.435,60.987,13.286
2017-10-04T13:26:04,42.805,6.029,4330,1995,199.405,60.978,13.286
2017-10-04T13:29:04,42.805,6.029,4330,1995,199.238,60.926,13.286
2017-10-04T13:32:04,42.805,6.029,4330,1995,199.389,60.973,13.285
2017-10-04T13:35:04,42.805,6.029,4330,1995,199.365,60.965,13.286
2017-10-04T13:38:04,42.805,6.029,4330,1995,199.386,60.972,13.286
2017-10-04T13:41:04,42.805,6.029,4330,1995,199.456,60.993,13.286
2017-10-04T13:44:04,42.805,6.029,4330,1995,199.210,60.918,13.286
2017-10-04T13:47:04,42.805,6.029,4330,1995,199.168,60.905,13.286
2017-10-04T13:50:04,42.805,6.029,4330,1995,199.050,60.869,13.286
2017-10-04T13:53:04,42.805,6.029,4330,1995,199.056,60.871,13.286
2017-10-04T13:56:04,42.805,6.029,4330,1995,198.933,60.834,13.286
2017-10-04T13:59:04,42.805,6.029,4330,1995,199.040,60.866,13.286
2017-10-04T14:02:04,42.805,6.029,4330,1995,199.045,60.868,13.286
2017-10-04T14:05:04,42.805,6.029,4330,1995,199.106,60.886,13.286
2017-10-04T14:08:04,42.805,6.029,4330,1995,199.072,60.876,13.286
2017-10-04T14:11:04,42.805,6.029,4330,1995,198.971,60.845,13.286
2017-10-04T14:14:04,42.805,6.029,4330,1995,198.970,60.845,13.286
2017-10-04T14:17:04,42.805,6.029,4330,1995,198.859,60.811,13.286
2017-10-04T14:20:04,42.805,6.029,4330,1995,198.923,60.831,13.286
2017-10-04T14:23:04,42.805,6.029,4330,1995,198.921,60.830,13.286
2017-10-04T14:26:04,42.805,6.029,4330,1995,198.699,60.762,13.286
2017-10-04T14:29:04,42.805,6.029,4330,1995,198.698,60.762,13.286
2017-10-04T14:32:04,42.805,6.029,4330,1995,198.743,60.775,13.286
2017-10-04T14:35:04,42.805,6.029,4330,1995,198.887,60.820,13.286
2017-10-04T14:38:04,42.805,6.029,4330,1995,198.977,60.847,13.286
2017-10-04T14:41:04,42.805,6.029,4330,1995,199.015,60.859,13.286
2017-10-04T14:44:04,42.805,6.029,4330,1995,198.925,60.832,13.286
2017-10-04T14:47:04,42.805,6.029,4330,1995,198.728,60.771,13.286
2017-10-04T14:50:04,42.805,6.029,4330,1995,198.772,60.785,13.287
2017-10-04T14:53:04,42.805,6.029,4330,1995,198.797,60.793,13.286
2017-10-04T14:56:04,42.805,6.029,4330,1995,198.723,60.770,13.286
2017-10-04T14:59:04,42.805,6.029,4330,1995,198.708,60.765,13.286
2017-10-04T15:02:04,42.805,6.029,4330,1995,198.877,60.817,13.286
2017-10-04T15:05:04,42.805,6.029,4330,1995,198.862,60.812,13.286
2017-10-04T15:08:04,42.805,6.029,4330,1995,198.995,60.854,13.287
2017-10-04T15:11:04,42.805,6.029,4330,1995,199.071,60.877,13.287
2017-10-04T15:14:04,42.805,6.029,4330,1995,199.029,60.864,13.287
2017-10-04T15:17:04,42.805,6.029,4330,1995,199.045,60.870,13.287
2017-10-04T15:20:04,42.805,6.029,4330,1995,199.162,60.905,13.287
2017-10-04T15:23:04,42.805,6.029,4330,1995,199.274,60.940,13.287
2017-10-04T15:26:04,42.805,6.029,4330,1995,199.307,60.949,13.287
2017-10-04T15:29:04,42.805,6.029,4330,1995,199.245,60.930,13.287
2017-10-04T15:32:04,42.805,6.029,4330,1995,199.234,60.928,13.288
2017-10-04T15:35:04,42.805,6.029,4330,1995,199.234,60.928,13.287
2017-10-04T15:38:04,42.805,6.029,4330,1995,199.273,60.940,13.287
2017-10-04T15:41:04,42.805,6.029,4330,1995,199.208,60.920,13.288
2017-10-04T15:44:04,42.805,6.029,4330,1995,199.157,60.904,13.287
2017-10-04T15:47:04,42.805,6.029,4330,1995,199.217,60.923,13.287
2017-10-04T15:50:04,42.805,6.029,4330,1995,199.128,60.896,13.288
2017-10-04T15:53:04,42.805,6.029,4330,1995,198.880,60.820,13.288
2017-10-04T15:56:04,42.805,6.029,4330,1995,198.632,60.745,13.289
2017-10-04T15:59:04,42.805,6.029,4330,1995,198.347,60.657,13.288
2017-10-04T16:02:04,42.805,6.029,4330,1995,198.190,60.611,13.289
2017-10-04T16:05:04,42.805,6.029,4330,1995,197.884,60.518,13.290
2017-10-04T16:08:04,42.805,6.029,4330,1995,197.522,60.409,13.291
2017-10-04T16:11:04,42.805,6.029,4330,1995,197.133,60.292,13.292
2017-10-04T16:14:04,42.805,6.029,4330,1995,196.963,60.238,13.291
2017-10-04T16:17:04,42.805,6.029,4330,1995,197.084,60.276,13.291
2017-10-04T16:20:04,42.805,6.029,4330,1995,197.003,60.250,13.291
2017-10-04T16:23:04,42.805,6.029,4330,1995,197.111,60.282,13.290
2017-10-04T16:26:04,42.805,6.029,4330,1995,196.807,60.189,13.290
2017-10-04T16:29:04,42.805,6.029,4330,1995,196.610,60.130,13.291
2017-10-04T16:32:04,42.805,6.029,4330,1995,196.206,60.006,13.290
2017-10-04T16:35:04,42.805,6.029,4330,1995,196.219,60.010,13.290
2017-10-04T16:38:04,42.805,6.029,4330,1995,196.498,60.096,13.291
2017-10-04T16:41:04,42.805,6.029,4330,1995,196.530,60.106,13.291
2017-10-04T16:44:04,42.805,6.029,4330,1995,196.374,60.057,13.290
2017-10-04T16:47:04,42.805,6.029,4330,1995,196.359,60.054,13.292
2017-10-04T16:50:04,42.805,6.029,4330,1995,196.321,60.040,13.290
2017-10-04T16:53:04,42.805,6.029,4330,1995,196.717,60.164,13.292
2017-10-04T16:56:04,42.805,6.029,4330,1995,196.717,60.163,13.291
2017-10-04T16:59:04,42.805,6.029,4330,1995,196.861,60.207,13.291
2017-10-04T17:02:04,42.805,6.029,4330,1995,197.166,60.300,13.291
2017-10-04T17:05:04,42.805,6.029,4330,1995,197.251,60.325,13.290
2017-10-04T17:08:04,42.805,6.029,4330,1995,197.208,60.313,13.291
2017-10-04T17:11:04,42.805,6.029,4330,1995,197.016,60.256,13.292
2017-10-04T17:14:04,42.805,6.029,4330,1995,196.982,60.243,13.290
2017-10-04T17:17:04,42.805,6.029,4330,1995,196.826,60.197,13.291
2017-10-04T17:20:04,42.805,6.029,4330,1995,196.710,60.163,13.293
2017-10-04T17:23:04,42.805,6.029,4330,1995,196.652,60.145,13.293
2017-10-04T17:26:04,42.805,6.029,4330,1995,196.544,60.111,13.292
2017-10-04T17:29:04,42.805,6.029,4330,1995,196.708,60.162,13.292
2017-10-04T17:32:04,42.805,6.029,4330,1995,196.857,60.206,13.291
2017-10-04T17:35:04,42.805,6.029,4330,1995,196.952,60.234,13.290
2017-10-04T17:38:04,42.805,6.029,4330,1995,197.035,60.259,13.290
2017-10-04T17:41:04,42.805,6.029,4330,1995,197.019,60.254,13.290
2017-10-04T17:44:04,42.805,6.029,4330,1995,197.021,60.254,13.290
2017-10-04T17:47:04,42.805,6.029,4330,1995,196.935,60.228,13.290
2017-10-04T17:50:04,42.805,6.029,4330,1995,196.928,60.226,13.290
2017-10-04T17:53:04,42.805,6.029,4330,1995,196.780,60.182,13.291
2017-10-04T17:56:04,42.805,6.029,4330,1995,196.770,60.178,13.290
2017-10-04T17:59:04,42.805,6.029,4330,1995,196.786,60.182,13.289
2017-10-04T18:02:04,42.805,6.029,4330,1995,196.776,60.180,13.290
2017-10-04T18:05:04,42.805,6.029,4330,1995,196.743,60.169,13.290
2017-10-04T18:08:04,42.805,6.029,4330,1995,196.777,60.180,13.290